TimeEDT,TemperatureF,Dew PointF,Humidity,Sea Level PressureIn,VisibilityMPH,Wind Direction,Wind SpeedMPH,Gust SpeedMPH,PrecipitationIn,Events,Conditions,WindDirDegrees,DateUTC
12:54 AM,50.0,32.0,50,29.69,10.0,North,3.5,-,N/A,,Partly Cloudy,350,2014-04-09 04:54:00
1:54 AM,46.9,33.1,59,29.68,10.0,NNW,5.8,-,N/A,,Clear,330,2014-04-09 05:54:00
2:54 AM,46.0,32.0,58,29.68,10.0,Calm,Calm,-,N/A,,Clear,0,2014-04-09 06:54:00
3:54 AM,46.0,33.1,61,29.68,10.0,Calm,Calm,-,N/A,,Partly Cloudy,0,2014-04-09 07:54:00
4:54 AM,42.1,32.0,67,29.68,10.0,West,4.6,-,N/A,,Partly Cloudy,280,2014-04-09 08:54:00
5:54 AM,43.0,33.1,68,29.70,10.0,NW,5.8,-,N/A,,Partly Cloudy,320,2014-04-09 09:54:00
6:54 AM,44.1,33.1,65,29.73,10.0,NNW,8.1,-,N/A,,Partly Cloudy,330,2014-04-09 10:54:00
7:54 AM,46.9,34.0,61,29.76,10.0,NNW,11.5,-,N/A,,Partly Cloudy,330,2014-04-09 11:54:00
8:54 AM,52.0,33.1,49,29.77,10.0,NNW,13.8,-,N/A,,Scattered Clouds,340,2014-04-09 12:54:00
9:54 AM,55.0,32.0,42,29.78,10.0,North,11.5,-,N/A,,Mostly Cloudy,10,2014-04-09 13:54:00
10:54 AM,57.0,30.0,36,29.80,10.0,NNW,10.4,-,N/A,,Scattered Clouds,330,2014-04-09 14:54:00
11:54 AM,60.1,28.9,31,29.79,10.0,NW,16.1,20.7,N/A,,Partly Cloudy,310,2014-04-09 15:54:00
12:54 PM,63.0,27.0,26,29.78,10.0,NNW,17.3,-,N/A,,Scattered Clouds,330,2014-04-09 16:54:00
1:54 PM,62.1,27.0,26,29.78,10.0,NW,11.5,21.9,N/A,,Mostly Cloudy,310,2014-04-09 17:54:00
2:54 PM,63.0,23.0,22,29.78,10.0,NNW,12.7,24.2,N/A,,Scattered Clouds,330,2014-04-09 18:54:00
3:54 PM,64.9,19.0,17,29.78,10.0,NW,21.9,29.9,N/A,,Scattered Clouds,320,2014-04-09 19:54:00
4:54 PM,64.0,19.9,18,29.79,10.0,WNW,18.4,24.2,N/A,,Scattered Clouds,290,2014-04-09 20:54:00
5:54 PM,62.1,21.0,21,29.81,10.0,NW,12.7,-,N/A,,Scattered Clouds,320,2014-04-09 21:54:00
6:54 PM,62.1,19.9,20,29.83,10.0,NNW,16.1,-,N/A,,Scattered Clouds,330,2014-04-09 22:54:00
7:54 PM,61.0,19.9,21,29.87,10.0,NW,6.9,-,N/A,,Partly Cloudy,320,2014-04-09 23:54:00
8:54 PM,57.0,21.9,26,29.93,10.0,North,8.1,-,N/A,,Scattered Clouds,360,2014-04-10 00:54:00
9:54 PM,55.9,24.1,29,29.98,10.0,North,12.7,-,N/A,,Clear,10,2014-04-10 01:54:00
10:54 PM,53.1,25.0,34,30.01,10.0,North,9.2,-,N/A,,Clear,10,2014-04-10 02:54:00
11:54 PM,53.1,25.0,34,30.05,10.0,NNE,10.4,-,N/A,,Clear,20,2014-04-10 03:54:00